Home > Weather > Waren (Müritz) > Past weeks

Flag for Germany Past Weather in Waren (Müritz), Mecklenburg-Western Pomerania, Germany — Yesterday and Last 2 Weeks

Now
68 °F

Scattered clouds.


Feels Like: 68 °F
Forecast: 51 / 75 °F
Wind: 10 mph from Northeast

Location: Laage

Current Time: May 28, 2016 at 1:58:15 PM

Latest Report: May 28, 2016 at 12:20 PM


Visibility: N/A

Pressure: 30.01 "Hg

Humidity: 53%

Dew Point: 50 °F

Location of Waren (Müritz)Location

Past Weather in Waren (Müritz) — Graph

°F

Waren (Müritz) Temperature Yesterday

Maximum temperature yesterday: 66 °F (at 5:20 PM)
Minimum temperature yesterday: 55 °F (at 1:20 AM)
Average temperature yesterday: 60 °F

High & Low Weather Summary for the Past Weeks

 TemperatureHumidityPressure
High82 °F (May 22, 3:20 PM)100% (May 15, 5:20 AM)30.07 "Hg (May 15, 5:20 AM)
Low39 °F (May 18, 5:20 AM)32% (May 13, 12:20 PM)29.56 "Hg (May 13, 8:20 PM)
Average57 °F74%29.87 "Hg
* Reported May 13 12:20 PM — May 28 12:20 PM, Waren (Müritz), Weather by CustomWeather, © 2016

Note: Actual official high and low records may vary slightly from our data, if they occured in-between our weather recording intervals... More about our weather records

Advertising

Waren (Müritz) Weather History for the Previous 24 Hours

Scroll right to see more
 ConditionsComfort  
Time TempWeatherWind HumidityBarometerVisibility
12:20 PM
Sat, May 28
68 °FScattered clouds.10 mph53%30.01 "HgN/A
11:20 AM66 °FScattered clouds.9 mph56%30.01 "HgN/A
10:20 AM64 °FScattered clouds.10 mph60%30.04 "HgN/A
9:20 AM63 °FScattered clouds.13 mph59%30.04 "HgN/A
8:20 AM61 °FScattered clouds.10 mph68%30.04 "HgN/A
7:20 AM59 °FPartly sunny.8 mph77%30.04 "HgN/A
6:20 AM55 °FPartly sunny.5 mph88%30.04 "HgN/A
5:20 AM52 °FPassing clouds.3 mph94%30.04 "HgN/A
4:20 AM54 °FPassing clouds.2 mph82%30.04 "HgN/A
3:20 AM54 °FPassing clouds.5 mph82%30.04 "HgN/A
2:20 AM54 °FPassing clouds.5 mph82%30.04 "HgN/A
1:20 AM55 °FPassing clouds.5 mph72%30.04 "HgN/A
12:20 AM55 °FPassing clouds.6 mph77%30.07 "HgN/A
11:20 PM
Fri, May 27
55 °FPartly cloudy.6 mph77%30.07 "HgN/A
10:20 PM59 °FPartly sunny.7 mph68%30.07 "HgN/A
9:20 PM61 °FBroken clouds.7 mph63%30.04 "HgN/A
8:20 PM64 °FPartly sunny.6 mph64%30.04 "HgN/A
7:20 PM66 °FPartly sunny.3 mph64%30.04 "HgN/A
6:20 PM66 °FPartly sunny.6 mph68%30.04 "HgN/A
5:20 PM66 °FPartly sunny.6 mph64%30.04 "HgN/A
4:20 PM64 °FBroken clouds.6 mph68%30.04 "HgN/A
3:20 PM64 °FBroken clouds.7 mph68%30.04 "HgN/A
2:20 PM64 °FBroken clouds.7 mph68%30.04 "HgN/A
1:20 PM63 °FPartly sunny.7 mph73%30.04 "HgN/A
Weather by CustomWeather, © 2016

See weather overviewHow to use our weather pages